STARLINK-3980 (52611 NORAD) Tracking and Keplerian Element Data

This shows tracking and keplerian element data for the satellite.

Feedback or suggestion? Click here.




ElementValue
Catalog52611
NameSTARLINK-3980
Epoch Orbit130
Epoch Day167.08334491
Epoch Year2022
RAAN282.7134
Inclination53.2175
Eccentricity0.0001299
Argument of Perigee55.8633
Mean Anonmoly23.4802
Mean Motion15.36962224
Decay Rate-0.00841942
L11 52611U 22052P 22167.08334491 -.00841942 00000+0 -24841-1 0 9995
L22 52611 53.2175 282.7134 0001299 55.8633 23.4802 15.36962224 1301

Live tracking and technical data element details for STARLINK-3980 (NORAD 52611). STARLINK-3980 can be tracked NOW for your location showing map with azimuth and elevation plus other details from your city location.

Track the satellite on the map from your city or location and see movement details for azimuth, elevation, latitude, longitude, range, height, and movement on the map or in text.







IsCatalogInMostPopularTable: catalog: 52611, numindb: 1
Update: records affected: 1



GetName: 52611 STARLINK-3980

Hit Count: updated at: Mon, 27 Jun 2022 06:07:59 GMT